Regional Weather Roundup
Issued by NWS

Home | Current Version | Previous Version | Graphics & Text | Print | Product List | Glossary On
Versions: 1 2 3 4 5 6 7 8 9 10 11 12 13 14 15 16 17 18 19 20 21 22 23 24 25 26 27 28 29 30 31 32 33 34 35 36 37 38 39 40 41 42 43 44 45 46 47 48 49 50
000
ASUS45 KSLC 251010
RWRUT

UTAH REGIONAL WEATHER ROUNDUP
NATIONAL WEATHER SERVICE SALT LAKE CITY UT
400 AM MDT MON MAY 25 2015

UTZ001>011-023>025-251100-

NORTHERN UTAH

CITY           SKY/WX    TMP DP  RH WIND       PRES   REMARKS
BRIGHAM CITY   CLOUDY    53  50  89 CALM      29.93S
HILL AFB       CLOUDY    49  45  87 E10       29.93S
LOGAN          CLOUDY    52  48  86 S6        29.92S
OGDEN          MOCLDY    49  45  86 S6        29.92S
PROVO AIRPORT  CLOUDY    52  46  82 CALM      29.95S
SALT LAKE CITY MOCLDY    52  47  83 S6        29.92S
VERNAL         LGT RAIN  46  43  89 W3        29.96S
WENDOVER       MOCLDY    55  45  67 SW6       29.92S
HEBER CITY     MOCLDY    43  39  87 CALM      29.97S
WEST JORDAN    MOCLDY    48  48 100 CALM      29.94S

$$

UTZ012>022-026-027-251100-

SOUTHERN/CENTRAL UTAH

CITY           SKY/WX    TMP DP  RH WIND       PRES   REMARKS
BLANDING       MOCLDY    47  44  91 CALM      30.03S
BRYCE CANYON   CLOUDY    41  37  86 N7        30.05R
CEDAR CITY     CLOUDY    47  44  90 CALM      29.99R
DELTA          CLOUDY    49  45  85 S5        29.96S
HANKSVILLE     CLOUDY    55  46  71 CALM      29.92S
MILFORD        PTCLDY    45  42  89 W6        29.97R
MOAB/CYNLANDS  PTCLDY    52  43  71 E3        29.91R
PRICE          MOCLDY    48  37  65 NE3       29.95R
ST GEORGE      CLOUDY    57  50  77 SE6       29.95S

$$

REGIONAL REPORTS     COLORADO/ARIZONA

CITY           SKY/WX    TMP DP  RH WIND       PRES   REMARKS
CRAIG, CO      CLOUDY    44  41  89 CALM      29.97S
GRAND JUNCTION CLOUDY    47  46  97 E5        29.95R
RIFLE          CLOUDY    46  42  86 CALM      29.98R
MONTROSE       CLOUDY    46  44  93 W3        30.00S
CORTEZ         CLOUDY    47  43  86 E5        29.98R
PAGE, AZ       MOCLDY    57  47  69 N3        29.93R
GRAND CANYON   CLOUDY    45  43  93 W3        30.06R
KINGMAN        CLOUDY    57  51  80 SE7       29.95F
FLAGSTAFF      MOCLDY    43  39  86 CALM      30.07S

$$

REGIONAL REPORTS    NEVADA/IDAHO/WYOMING

CITY           SKY/WX    TMP DP  RH WIND       PRES   REMARKS
LAS VEGAS, NV  MOCLDY    64  54  69 S7        29.87F
ELY            CLEAR     37  36  96 S10       30.04S WCI  30
ELKO           MOCLDY    43  41  93 S3        29.98R
POCATELLO, ID  CLEAR     50  46  86 SW10      29.93R
BURLEY         MOCLDY    47  43  86 SE5       29.91S
EVANSTON, WY   CLOUDY    42  40  92 SW8       29.99R
ROCK SPRINGS   CLOUDY    41  38  89 SE3       29.98S
KEMMERER       CLOUDY    41  39  93 CALM      30.00S

$$



USA.gov is the U.S. government's official web portal to all federal, state and local government web resources and services.